Location: Ward Pound Ridge Reservation
(41.2500°N, 73.6000°W)
Time: 10:29:19
(UTC-04:00)

Tiangong 1 - Pass Details

Date: 15 October 2017
Orbit: 293 x 320 km, 42.8° (Epoch: 20 October)

Event Time Altitude Azimuth Distance (km) Brightness Sun altitude
Rises 20:16:08 0° 274° (W) 2,034 6.2 -23.8°
Reaches altitude 10° 20:18:52 10° 243° (WSW) 1,195 4.2 -24.3°
Enters shadow 20:19:12 11° 236° (SW) 1,134 4.0 -24.4°
